[[{"header":{"parameterUnit":"m.s-1","parameterCategory":1,"la1":30.2992,"la2":30.254,"lo1":-89.0895,"lo2":-89.0443,"dy":0.0025,"dx":0.0025,"nx":19,"ny":19,"refTime":"2026-03-20T09:00:00:Z","depth":0,"parameterNumber":2,"parameterNumberName":"U-component_of_WINDS"},"data":[0,0,0,2.163,2.1632,2.174,2.174,2.1863,2.1864,0,0,0,0,0,0,0,0,0,0,0,2.1586,2.1586,2.163,2.1633,2.174,2.1741,2.1863,2.1864,0,0,0,0,0,0,0,0,0,0,0,2.1586,2.1586,2.1586,2.1633,2.174,2.1741,2.1863,2.1788,0,0,0,0,0,0,0,0,0,0,2.1686,2.1631,2.1586,2.1586,2.1633,2.174,2.1741,2.1785,2.1793,2.1807,0,2.1813,0,2.184,2.1871,2.1871,0,0,0,2.1643,2.1624,2.1665,2.1586,2.1634,2.1739,2.1694,2.1789,2.1798,2.1817,2.1815,2.182,2.1842,2.1872,2.1872,2.1912,2.1912,0,0,2.1637,2.1599,2.1659,2.167,2.1648,2.1691,2.1698,2.1795,2.1791,2.1815,2.1823,2.1844,2.1872,2.1873,2.1912,2.1912,0,0,0,2.1613,2.1594,2.1633,2.1664,2.1685,2.1694,2.1702,2.1787,2.1802,2.1825,2.1846,2.1873,2.1874,2.1913,2.1912,2.1857,0,0,0,2.161,2.158,2.1629,2.1607,2.1682,2.1736,2.169,2.1795,2.1808,2.1845,2.1873,2.1875,2.1913,2.1912,2.1859,2.1836,0,0,0,2.1583,2.1577,2.1588,2.1605,2.1649,2.1735,2.1757,2.1799,2.182,2.1871,2.1875,2.1913,2.1912,2.1861,2.184,2.1834,0,0,0,2.1544,2.1539,2.1586,2.1589,2.1648,2.17,2.1757,2.1799,2.1836,2.1873,2.1913,2.1912,2.1862,2.1842,2.1836,2.182,2.1811,0,0,2.1516,2.1534,2.1539,2.1585,2.1617,2.1687,2.1714,2.1786,2.1829,2.1883,2.1884,2.1858,2.184,2.1835,2.1774,2.1766,0,0,0,2.1517,2.152,2.1537,2.1569,2.1623,2.1669,2.1741,2.1769,2.1816,2.1847,2.1857,2.1848,2.1846,2.1841,2.1834,2.1834,2.1908,2.1908,2.1909,2.142,2.1472,2.1484,2.155,2.1582,2.1657,2.1689,2.174,2.1785,2.1787,2.1802,2.1758,2.175,2.1745,2.1745,2.1801,2.18,2.18,2.18,2.1381,2.1393,2.1454,2.1486,2.1544,2.1574,2.1649,2.168,2.1718,2.1751,2.1753,2.1781,2.1734,2.1738,2.1797,2.1797,2.1798,2.1798,2.1798,2.1321,2.1335,2.1368,2.1422,2.1459,2.1529,2.1562,2.1615,2.1665,2.1667,2.1688,2.1689,2.1696,2.1674,2.1674,2.1674,2.1674,2.1674,2.1673,2.1243,2.1283,2.1302,2.136,2.1389,2.1434,2.1513,2.1544,2.1593,2.1629,2.1629,2.1674,2.1721,2.1729,2.1671,2.1672,2.1672,2.1672,2.1672,2.1179,2.1203,2.1232,2.1261,2.1336,2.1369,2.1438,2.1497,2.1531,2.1546,2.1593,2.1619,2.1642,2.1648,2.1655,2.1582,2.1582,2.1582,2.1582,2.1126,2.1143,2.1186,2.1228,2.1277,2.1343,2.1378,2.1441,2.1511,2.1536,2.1556,2.1571,2.1575,2.1596,2.1603,2.1611,2.1527,2.1527,2.1527,2.1089,2.1114,2.113,2.1196,2.126,2.1314,2.1349,2.1399,2.1483,2.1526,2.1557,2.1559,2.1585,2.1591,2.163,2.1639,2.1655,0,0]},{"header":{"parameterUnit":"m.s-1","parameterCategory":1,"la1":30.2992,"la2":30.254,"lo1":-89.0895,"lo2":-89.0443,"dy":0.0025,"dx":0.0025,"nx":19,"ny":19,"refTime":"2026-03-20T09:00:00:Z","depth":0,"parameterNumber":3,"parameterNumberName":"V-component_of_WINDS"},"data":[0,0,0,2.8005,2.8007,2.8083,2.8083,2.8159,2.816,0,0,0,0,0,0,0,0,0,0,0,2.7973,2.7973,2.8005,2.8007,2.8083,2.8083,2.8159,2.816,0,0,0,0,0,0,0,0,0,0,0,2.7973,2.7973,2.7973,2.8007,2.8082,2.8083,2.8159,2.8108,0,0,0,0,0,0,0,0,0,0,2.8038,2.7999,2.7973,2.7973,2.8007,2.8082,2.8083,2.8106,2.8112,2.8117,0,2.8121,0,2.8142,2.8164,2.8164,0,0,0,2.8013,2.7994,2.8024,2.7973,2.8008,2.8082,2.805,2.8109,2.8115,2.8123,2.8122,2.8125,2.8143,2.8164,2.8164,2.8177,2.8177,0,0,2.8009,2.798,2.802,2.8028,2.8018,2.8048,2.8052,2.8113,2.8109,2.8122,2.8127,2.8144,2.8164,2.8165,2.8178,2.8177,0,0,0,2.7993,2.7977,2.8006,2.8024,2.8039,2.805,2.8055,2.8106,2.8118,2.8128,2.8145,2.8165,2.8165,2.8178,2.8177,2.8137,0,0,0,2.7991,2.7967,2.8004,2.7986,2.8038,2.8074,2.8046,2.8114,2.8122,2.8145,2.8165,2.8166,2.8178,2.8178,2.8139,2.8123,0,0,0,2.7971,2.7965,2.7973,2.7985,2.8017,2.8074,2.809,2.8116,2.8131,2.8164,2.8166,2.8179,2.8178,2.8141,2.8126,2.8118,0,0,0,2.7941,2.7935,2.7972,2.7971,2.8016,2.805,2.809,2.8116,2.8139,2.8165,2.8178,2.8178,2.8141,2.8127,2.812,2.8106,2.8099,0,0,2.7917,2.7931,2.7933,2.7968,2.7988,2.804,2.8054,2.8101,2.8129,2.8159,2.816,2.8139,2.8126,2.8118,2.8064,2.8058,0,0,0,2.7915,2.7916,2.7927,2.795,2.7988,2.8018,2.8067,2.8085,2.8112,2.814,2.8135,2.8128,2.8125,2.812,2.8114,2.8113,2.8174,2.8174,2.8174,2.7837,2.7876,2.7882,2.793,2.7951,2.8002,2.8022,2.8054,2.8086,2.8084,2.8093,2.8056,2.8049,2.8045,2.8043,2.8089,2.8089,2.8089,2.8089,2.7804,2.7812,2.7856,2.7878,2.7918,2.7935,2.7984,2.8006,2.8027,2.8052,2.8051,2.8074,2.8036,2.8037,2.8086,2.8087,2.8087,2.8087,2.8088,2.7757,2.7768,2.7791,2.7828,2.7851,2.79,2.7919,2.7955,2.7988,2.7987,2.8,2.8001,2.8006,2.7991,2.7991,2.7991,2.7991,2.7991,2.7991,2.7699,2.7727,2.774,2.7781,2.78,2.783,2.7882,2.7901,2.7931,2.7956,2.7956,2.7987,2.8026,2.8035,2.7989,2.7989,2.7989,2.7989,2.799,2.765,2.7667,2.7687,2.7707,2.7758,2.7779,2.7825,2.7861,2.7882,2.789,2.7922,2.7945,2.7961,2.7966,2.7974,2.7914,2.7914,2.7914,2.7914,2.761,2.7623,2.7652,2.7681,2.7713,2.7758,2.7777,2.7817,2.7861,2.7876,2.789,2.7903,2.7906,2.792,2.7926,2.7934,2.7865,2.7865,2.7865,2.7582,2.76,2.761,2.7656,2.7699,2.7734,2.7754,2.7783,2.7837,2.7864,2.7888,2.789,2.7912,2.7918,2.7944,2.7952,2.7967,0,0]}]]